Miscellaneous Local Product
Issued by NWS Hastings, NE

Home | Current Version | Previous Version | Text Only | Print | Product List | Glossary On
Versions: 1 2 3 4 5 6 7 8 9 10 11 12 13 14 15 16 17 18 19 20 21 22 23 24 25 26 27 28 29 30 31 32 33 34 35 36 37 38 39 40 41 42 43 44 45 46 47 48 49 50
727
AXUS43 KGID 042302
MISGRI

GID CWA HOURLY WEATHER ROUNDUP
NATIONAL WEATHER SERVICE HASTINGS NE
600 PM CDT WED MAY 04 2016

NOTE: "FAIR" INDICATES FEW OR NO CLOUDS BELOW 12,000 FEET WITH NO
SIGNIFICANT WEATHER AND/OR OBSTRUCTIONS TO VISIBILITY.

...SOUTH CENTRAL NEBRASKA...

CITY           SKY/WX    TMP DP  RH WIND       PRES   REMARKS
GRAND ISLAND   SUNNY     70  30  22 N12       30.06F
HASTINGS       SUNNY     70  31  23 N15G21    30.06S
KEARNEY        SUNNY     70  34  26 N10       30.08S
ORD            SUNNY     70  36  28 N13       30.05F
YORK           SUNNY     68  32  26 N15G21    30.05S
AURORA         SUNNY     70  29  22 N14       30.05S
LEXINGTON      SUNNY     72  39  30 N8        30.07F
HOLDREGE       SUNNY     71  33  24 N9        30.07S
HEBRON         SUNNY     71  32  23 N7        30.04S

...NEBRASKA PANHANDLE...

CITY           SKY/WX    TMP DP  RH WIND       PRES   REMARKS
CHADRON        SUNNY     77  40  26 SE8       30.05F
ALLIANCE       SUNNY     73  38  27 SE8       30.10F
SCOTTSBLUFF    SUNNY     76  39  26 SE6       30.09F
SIDNEY         SUNNY     73  40  30 VRB7      30.13F

...WESTERN AND NORTH CENTRAL NEBRASKA...

CITY           SKY/WX    TMP DP  RH WIND       PRES   REMARKS
VALENTINE      SUNNY     74  35  24 E6        30.08S
AINSWORTH      SUNNY     70  33  25 N3        30.08F
ONEILL         SUNNY     68  31  25 N8        30.08S
BROKEN BOW     SUNNY     73  46  38 N7        30.07F
IMPERIAL       SUNNY     77  35  21 VRB5      30.09F
NORTH PLATTE   SUNNY     75  36  24 N14       30.07F
MCCOOK         SUNNY     77  41  27 NE9       30.07S

...EASTERN NEBRASKA...

CITY           SKY/WX    TMP DP  RH WIND       PRES   REMARKS
NORFOLK        SUNNY     68  32  26 NW15      30.03F
SO SIOUX CITY  SUNNY     68  42  38 NW13      30.01S
TEKAMAH        SUNNY     68  40  35 N14       30.01S
COLUMBUS       SUNNY     70  30  23 NW9G17    30.04F
ALBION         SUNNY     68  32  27 N10       30.05F
OMAHA EPPLEY   MOSUNNY   69  38  32 N13       30.00S
OFFUTT AFB     SUNNY     68  38  33 N7        30.00S
MILLARD        SUNNY     69  37  30 N7        30.01S
LINCOLN        SUNNY     72  32  23 N13       30.03F
NEBRASKA CITY  SUNNY     68  33  27 NE15      30.00F
BEATRICE       SUNNY     69  37  30 N16       30.02F
FALLS CITY     SUNNY     69  36  29 N15G22    29.99S

...NORTHERN KANSAS...

CITY           SKY/WX    TMP DP  RH WIND       PRES   REMARKS
GOODLAND       MOSUNNY   74  44  34 NE8       30.11F
HILL CITY      SUNNY     77  39  25 NE6       30.08S
NORTON         CLEAR     75  30  19 N7        30.07S
PHILLIPSBURG   SUNNY     73  39  29 MISG      30.06F
SMITH CENTER   SUNNY     70  39  32 N8        30.06F
BELOIT         SUNNY     72  30  21 NW9       30.04S
HAYS           SUNNY     73  41  31 N12       30.07S
RUSSELL        SUNNY     73  39  29 N10       30.05S
CONCORDIA      SUNNY     71  32  23 N16       30.04F
SALINA         SUNNY     73  34  23 N16       30.04F
TOPEKA         SUNNY     71  37  28 NW13G18   29.99S



USA.gov is the U.S. government's official web portal to all federal, state and local government web resources and services.